Wind_Speed
28 24 22 23 25 25 24 24 20 22 25 30 34 35 28 18 23 25 27 27 26 25 23 22 23 25 30 36 38 36 41 33 42 43 41 48 46 58 55 60 61 58 56 49 44 39 25 15 8
25 22 23 23 25 22 21 16 15 23 23 23 29 33 25 28 23 26 28 27 27 27 28 29 22 28 32 34 35 36 39 40 40 46 50 53 59 57 58 57 53 46 43 37 35 31 19 7 7
24 23 21 24 29 22 22 17 14 17 27 17 16 14 17 21 14 21 30 20 22 29 26 26 27 28 36 40 40 35 39 45 46 54 52 50 57 58 55 45 40 34 30 26 30 26 13 6 6
20 19 21 25 28 31 20 20 21 20 20 27 31 28 27 25 23 23 19 27 24 28 26 27 29 29 32 38 39 40 38 43 47 50 50 53 56 50 42 41 36 30 22 28 23 23 12 7 5
19 16 12 12 18 22 19 17 16 14 17 19 23 27 31 34 35 35 30 30 32 33 38 36 39 42 41 40 46 45 44 47 51 51 51 49 40 38 35 30 22 22 24 27 20 19 7 1 4
15 13 15 17 16 19 20 22 22 22 22 24 24 25 26 27 27 27 30 31 29 34 40 39 35 36 36 40 43 45 48 49 44 39 33 32 33 33 28 19 16 20 24 26 19 13 1 3 6
16 14 13 13 7 16 20 20 28 29 21 24 27 27 26 30 32 33 32 31 29 30 33 37 39 41 43 45 42 39 34 29 26 25 28 28 28 26 23 17 19 22 24 24 17 13 3 3 4
6 4 6 10 11 14 13 19 22 22 20 22 29 31 26 27 32 33 33 33 36 35 33 32 30 29 27 24 22 20 19 22 23 24 23 23 23 22 20 14 17 18 21 23 14 13 5 3 6
5 3 8 6 8 6 9 12 13 12 14 22 25 28 28 21 20 21 22 22 20 19 20 19 18 16 15 14 15 18 20 20 20 20 22 22 21 18 12 11 11 14 17 21 13 10 6 3 5
8 7 6 5 3 3 3 5 6 7 0 5 7 6 8 11 12 12 11 10 10 9 9 9 9 10 13 15 17 16 16 16 19 20 22 20 19 14 10 9 11 14 12 16 17 12 5 3 2
11 14 11 4 9 7 6 7 12 9 1 5 4 3 3 3 3 4 5 6 8 10 11 11 12 14 15 14 14 15 16 19 19 22 23 20 15 14 10 8 10 11 12 14 16 14 10 5 5
9 10 15 11 11 7 6 3 5 8 4 5 2 1 0 4 6 7 7 8 9 11 11 12 12 13 13 12 12 12 14 17 19 20 21 18 13 13 10 12 10 10 10 16 12 15 14 12 5
11 8 11 13 8 8 6 2 4 6 9 14 5 2 4 8 9 9 8 9 10 11 9 7 6 7 8 11 13 15 17 19 18 15 16 18 16 15 14 15 14 15 22 20 16 19 19 16 13
16 15 13 9 5 6 5 6 5 4 6 6 3 4 5 6 6 6 7 7 6 3 1 2 5 7 8 10 12 13 16 14 14 17 16 17 15 17 21 24 26 31 31 31 33 29 27 24 19
21 20 13 9 9 11 10 8 5 8 8 9 8 8 5 5 5 6 7 7 6 6 7 8 9 10 10 10 11 14 16 17 20 21 18 19 21 22 21 24 27 28 29 31 29 27 25 28 27
15 17 20 17 15 15 14 16 12 12 15 13 11 11 11 10 9 9 9 9 9 8 8 10 11 11 12 12 13 13 14 17 19 20 23 26 30 31 31 30 31 32 34 34 34 28 29 29 31
10 12 13 16 20 22 23 22 20 17 18 19 17 15 16 17 16 15 15 14 14 14 15 15 16 16 15 14 15 16 16 18 19 20 21 22 25 29 32 34 39 40 42 40 35 34 34 33 33
8 7 8 10 13 15 16 16 14 16 13 15 15 15 14 12 11 12 12 11 11 11 12 13 14 14 15 17 17 18 20 22 22 21 20 22 22 20 25 28 32 36 40 42 43 41 39 39 37
8 7 3 4 6 7 7 6 5 8 10 10 9 8 10 12 10 11 10 11 11 12 13 14 13 14 15 17 18 20 21 23 26 26 28 27 30 29 30 34 34 35 36 38 41 43 41 41 42
8 9 9 4 2 2 2 2 5 7 7 8 8 8 11 10 11 12 13 14 14 14 14 16 18 17 17 20 21 23 25 25 28 30 31 33 34 35 35 39 38 38 40 39 38 39 42 40 43
11 8 9 11 8 6 4 4 5 6 6 5 4 3 4 6 8 10 11 13 13 14 15 16 17 19 21 21 23 26 28 29 30 32 33 35 37 40 41 43 42 44 48 43 40 38 40 42 43
18 14 12 12 11 9 10 6 6 5 4 9 7 4 5 8 11 12 14 12 14 14 17 20 23 24 25 25 26 26 27 30 33 36 38 40 40 41 43 46 49 51 54 52 46 40 39 40 43
24 21 17 15 16 12 9 13 11 8 10 12 12 11 12 12 16 14 17 17 17 18 19 20 22 24 26 28 29 30 32 36 38 39 42 45 47 49 50 52 52 55 58 56 56 48 40 40 42
32 27 25 20 19 20 14 14 13 14 14 14 15 14 16 14 18 17 20 20 21 22 22 22 26 28 29 30 31 33 34 37 39 40 42 45 47 50 51 53 56 58 62 62 64 59 52 43 42
37 34 33 27 26 25 20 18 20 16 17 16 17 18 20 22 23 20 22 25 25 26 27 27 28 32 33 36 37 37 37 39 39 40 45 49 53 56 58 59 62 64 68 69 70 68 57 47 43
46 44 37 34 33 30 25 24 26 22 22 20 24 25 24 24 25 26 27 29 31 31 32 32 34 36 38 39 40 42 45 45 44 45 47 52 54 57 60 62 63 67 69 75 75 72 62 49 43
50 44 44 43 38 34 33 31 30 27 29 29 29 32 32 34 34 37 38 37 38 38 34 37 39 40 40 41 43 46 48 47 49 48 52 55 57 60 61 63 65 70 72 80 79 76 67 56 44
49 48 46 45 43 41 39 35 34 33 34 35 39 36 31 35 39 42 44 43 42 43 42 42 43 44 45 44 45 49 48 50 53 53 55 57 59 62 64 65 69 71 77 79 81 81 73 64 49
55 51 49 52 47 45 45 43 40 38 40 39 41 40 39 37 42 42 44 46 45 46 48 48 47 47 47 47 50 49 54 54 57 56 56 61 62 65 69 70 71 74 77 80 85 86 81 70 52
61 57 53 53 50 48 47 48 45 43 44 42 42 43 47 45 42 45 47 47 49 51 52 51 51 51 52 52 52 53 57 60 62 59 59 63 64 68 73 74 74 73 75 74 87 90 86 68 52
Wind_Direction
188 189 187 195 198 208 212 219 222 229 235 235 228 222 223 223 230 225 230 235 240 248 245 242 240 247 243 246 260 272 276 278 282 277 284 289 292 293 295 306 317 314 317 318 316 312 311 305 242
188 188 188 182 174 194 201 198 205 222 223 235 231 226 221 226 232 242 240 243 252 264 250 247 249 252 252 251 267 278 273 284 281 280 283 277 294 305 309 311 312 315 319 324 319 312 308 281 211
192 191 193 187 177 184 204 216 226 213 215 196 217 224 234 226 232 245 232 251 262 260 239 249 251 241 254 262 271 277 275 267 269 278 286 290 303 306 305 308 310 317 323 331 329 315 297 226 211
189 197 194 188 192 188 214 241 246 227 229 219 221 229 234 239 245 251 255 248 224 240 255 253 265 264 261 273 265 274 271 279 274 285 300 301 300 301 306 310 312 314 321 332 333 316 294 233 218
184 189 198 213 207 201 196 212 220 222 220 227 231 237 244 247 250 250 261 257 252 247 252 270 260 269 275 273 280 287 290 291 293 295 294 296 297 304 309 308 321 324 325 338 332 325 319 342 173
152 169 194 207 212 220 212 203 196 213 226 238 242 247 250 247 250 247 257 261 266 263 265 275 276 275 277 278 281 282 284 286 289 293 295 299 303 304 300 309 328 333 327 338 336 334 298 87 154
148 165 171 183 195 229 223 222 213 221 230 226 238 246 253 254 257 260 260 260 263 265 271 273 275 276 277 277 279 284 286 289 293 296 302 303 303 296 298 292 332 338 340 346 344 343 252 71 117
177 111 169 168 195 220 218 235 230 238 243 237 252 271 274 262 257 257 262 264 268 273 275 276 278 280 283 285 283 284 290 292 297 302 304 307 300 300 306 316 340 344 349 347 353 350 323 94 102
226 127 244 194 140 185 196 223 232 209 234 249 252 257 265 273 270 271 272 272 273 275 276 281 282 283 283 281 285 292 293 300 302 303 310 310 300 295 302 307 337 355 354 350 4 355 351 2 41
188 197 214 179 75 99 164 167 115 98 36 255 245 257 267 273 269 266 266 265 266 270 282 293 294 289 289 290 292 293 301 303 305 308 306 311 297 280 313 308 345 351 349 6 18 16 17 333 26
123 175 184 155 131 120 140 129 86 76 40 241 208 207 191 237 246 250 252 266 278 283 285 283 285 290 292 289 294 300 304 307 309 311 305 308 296 272 285 303 316 338 347 6 13 12 11 348 314
70 168 212 198 156 154 112 122 118 100 118 188 158 207 267 287 274 268 268 277 285 294 302 297 301 298 297 298 302 303 312 314 309 308 308 307 290 263 270 297 327 333 331 340 340 346 341 330 307
68 146 198 191 182 168 185 158 123 183 248 260 326 289 318 295 280 281 296 299 300 302 309 321 334 324 326 323 323 320 317 311 309 324 326 306 297 280 267 288 297 303 309 319 321 316 308 309 304
48 79 84 106 184 219 234 241 218 215 247 248 310 337 328 308 313 333 344 342 325 294 284 333 323 324 327 325 319 318 316 315 318 325 323 321 308 289 285 278 288 297 299 300 303 300 294 293 292
43 57 70 78 85 89 98 94 121 140 117 82 78 82 77 67 53 26 16 14 12 357 347 338 333 325 323 317 304 306 312 311 316 312 304 297 299 294 292 291 292 291 293 296 294 292 287 281 282
39 55 74 87 92 92 92 91 87 88 90 85 76 81 84 82 77 74 66 51 43 40 41 37 31 21 14 10 1 354 347 338 330 319 310 302 301 299 296 292 290 288 287 291 289 286 286 277 272
37 45 59 75 83 83 83 83 87 87 88 88 84 75 78 80 80 77 75 64 59 55 51 45 38 35 33 22 19 12 11 8 4 356 344 333 318 309 306 294 289 289 289 287 283 282 279 277 272
358 26 48 63 71 75 82 91 93 91 86 91 90 86 72 59 68 75 73 69 51 45 31 26 23 20 19 15 11 10 8 6 6 3 359 353 343 337 335 322 310 302 293 288 285 280 277 272 271
330 325 354 66 78 80 90 76 69 87 81 76 80 83 58 58 45 30 34 34 29 19 15 20 19 16 10 2 1 2 357 355 357 358 1 356 353 351 348 348 339 327 314 303 291 280 274 272 271
297 310 304 302 345 352 65 105 125 88 89 83 81 66 64 54 43 40 28 32 29 23 18 17 18 12 2 358 358 357 358 355 354 351 353 351 351 353 349 351 350 345 338 323 306 291 276 269 269
259 268 280 290 287 284 298 320 344 185 96 118 119 90 63 35 16 5 12 8 12 12 10 6 8 7 2 355 352 353 352 351 351 348 346 346 346 347 348 350 347 347 345 336 320 304 288 270 264
254 247 268 276 268 278 287 282 287 283 293 235 272 300 331 350 348 347 341 347 344 349 352 353 350 351 347 345 342 339 341 346 348 346 346 346 344 344 346 345 346 347 346 340 332 315 296 284 268
254 247 237 244 265 265 257 273 264 262 274 286 287 305 310 280 309 324 322 325 331 335 342 341 335 332 332 333 333 330 337 341 343 343 342 342 342 343 343 343 345 346 344 343 338 325 304 287 276
253 252 250 238 245 251 255 270 265 277 275 277 291 300 295 295 295 307 311 316 322 323 325 328 324 322 324 324 322 328 328 332 334 335 337 337 338 340 340 340 341 342 346 344 342 335 324 299 281
256 254 253 248 244 244 241 256 263 263 269 280 287 283 284 290 292 300 302 308 314 314 318 322 320 318 320 320 321 321 321 324 328 326 332 334 336 339 340 340 340 341 342 342 342 339 328 310 290
249 252 254 253 249 247 243 252 257 268 276 281 282 284 285 292 301 302 300 301 303 308 314 317 317 317 319 319 318 318 318 322 321 325 326 328 332 335 336 337 338 339 338 341 338 338 334 318 293
249 252 252 254 258 256 253 251 260 262 267 270 275 282 288 296 299 297 294 296 300 303 310 311 312 314 317 319 317 315 315 318 320 319 322 324 328 331 333 333 334 337 339 339 337 335 332 328 306
248 249 253 255 254 255 257 256 253 256 261 265 271 272 278 287 289 291 296 300 302 304 307 306 309 313 314 316 316 313 314 317 316 316 318 320 322 326 328 330 332 335 338 337 334 336 332 327 317
251 252 252 253 253 252 254 257 256 256 261 263 269 274 275 274 281 287 292 297 297 299 301 303 305 306 307 311 314 312 313 313 314 314 314 318 317 323 326 327 328 329 335 338 336 335 330 326 314
247 248 251 258 259 258 257 256 255 254 256 260 266 273 275 275 275 282 286 290 293 295 296 299 301 302 306 310 311 309 308 308 311 313 312 316 315 320 324 324 323 323 328 335 336 335 331 324 316
Height
10972 10974 10980 10984 10986 10988 10991 10992 10994 10996 10996 10999 11000 11004 11009 11011 11013 11015 11015 11015 11018 11019 11019 11019 11019 11019 11019 11018 11015 11013 11009 11007 11003 11001 10996 10992 10987 10980 10974 10968 10961 10957 10949 10944 10940 10933 10928 10926 10925
10974 10977 10980 10982 10984 10988 10989 10989 10994 10995 10997 10998 11000 11004 11007 11010 11012 11013 11013 11013 11014 11016 11016 11015 11016 11015 11014 11012 11010 11009 11004 11003 11002 10997 10993 10987 10980 10975 10969 10965 10958 10952 10947 10941 10936 10929 10925 10924 10924
10975 10977 10979 10982 10984 10989 10988 10989 10991 10996 10998 10999 11000 11003 11006 11008 11009 11010 11011 11011 11012 11012 11012 11011 11012 11011 11010 11009 11007 11005 11003 11001 10995 10991 10986 10979 10975 10970 10965 10960 10955 10949 10944 10940 10933 10927 10924 10921 10921
10973 10975 10977 10982 10985 10989 10990 10990 10991 10996 10996 10999 11001 11002 11003 11005 11006 11007 11008 11009 11008 11009 11009 11009 11008 11006 11006 11006 11003 11001 10999 10994 10989 10983 10978 10975 10971 10965 10961 10956 10952 10947 10943 10938 10933 10927 10923 10920 10919
10974 10978 10984 10988 10989 10991 10991 10990 10989 10993 10994 10997 10998 11000 11002 11003 11005 11006 11006 11005 11006 11004 11003 11003 11004 11002 11000 10997 10994 10992 10989 10985 10981 10978 10975 10973 10967 10962 10957 10953 10950 10946 10942 10937 10933 10928 10925 10922 10920
10975 10977 10978 10982 10984 10986 10989 10990 10991 10993 10993 10994 10995 10998 11000 11000 11002 11002 11002 11002 11002 11002 11002 11001 10999 10997 10995 10993 10991 10988 10985 10981 10976 10974 10971 10968 10963 10958 10955 10952 10948 10945 10941 10936 10932 10928 10925 10923 10921
10976 10976 10978 10979 10978 10982 10984 10986 10988 10990 10993 10994 10994 10996 10997 10997 10999 10999 10999 10999 10999 10998 10998 10995 10994 10992 10990 10988 10986 10983 10980 10976 10973 10970 10968 10964 10960 10956 10953 10951 10948 10944 10940 10935 10932 10929 10927 10926 10925
10974 10977 10977 10976 10979 10981 10983 10984 10985 10986 10987 10990 10991 10992 10993 10994 10995 10994 10994 10993 10993 10993 10990 10988 10987 10985 10984 10982 10980 10978 10976 10973 10969 10968 10965 10961 10957 10955 10953 10952 10948 10944 10940 10936 10932 10930 10929 10930 10928
10975 10975 10976 10977 10978 10981 10982 10985 10985 10984 10985 10988 10989 10988 10989 10990 10989 10989 10988 10988 10987 10987 10986 10984 10983 10982 10980 10979 10978 10976 10974 10970 10968 10965 10962 10959 10956 10953 10952 10950 10948 10943 10940 10938 10935 10933 10932 10934 10932
10975 10975 10973 10977 10977 10979 10981 10982 10982 10982 10984 10986 10987 10986 10985 10985 10985 10986 10986 10985 10984 10984 10983 10982 10981 10980 10978 10978 10976 10974 10971 10969 10965 10963 10960 10958 10954 10953 10951 10949 10946 10944 10942 10939 10936 10935 10934 10935 10934
10975 10978 10976 10980 10976 10979 10982 10980 10982 10983 10985 10987 10986 10986 10986 10986 10986 10985 10985 10985 10983 10983 10981 10980 10979 10978 10977 10975 10974 10971 10969 10966 10963 10960 10957 10957 10953 10952 10951 10949 10948 10945 10943 10940 10938 10937 10937 10937 10935
10976 10977 10979 10978 10979 10981 10982 10982 10983 10984 10987 10988 10987 10985 10985 10986 10986 10985 10985 10984 10982 10981 10980 10978 10977 10975 10975 10974 10972 10971 10968 10965 10962 10959 10956 10954 10954 10953 10951 10950 10948 10945 10944 10942 10941 10939 10938 10936 10935
10983 10979 10979 10980 10979 10981 10982 10981 10982 10984 10986 10986 10986 10986 10985 10985 10985 10984 10983 10982 10980 10980 10978 10976 10975 10974 10974 10973 10971 10969 10967 10965 10962 10959 10957 10953 10951 10952 10951 10950 10947 10945 10943 10942 10941 10938 10937 10935 10932
10991 10986 10982 10979 10980 10980 10980 10981 10981 10983 10985 10985 10985 10983 10983 10984 10983 10982 10981 10981 10979 10978 10977 10975 10973 10972 10972 10971 10969 10968 10966 10964 10962 10960 10958 10955 10952 10951 10950 10948 10945 10942 10939 10938 10936 10935 10932 10930 10929
10995 10986 10982 10981 10980 10981 10982 10982 10982 10982 10983 10983 10984 10983 10983 10983 10982 10982 10982 10981 10980 10978 10977 10976 10974 10972 10970 10970 10968 10966 10963 10961 10959 10957 10956 10954 10951 10950 10947 10945 10942 10938 10934 10930 10929 10930 10929 10925 10923
10999 10996 10993 10991 10987 10986 10985 10983 10984 10984 10983 10983 10984 10984 10984 10984 10983 10982 10982 10982 10981 10979 10978 10977 10975 10973 10971 10969 10967 10965 10963 10961 10958 10956 10953 10950 10949 10946 10944 10941 10936 10933 10930 10926 10923 10922 10921 10919 10918
11001 11000 10995 10993 10991 10989 10986 10985 10986 10985 10984 10983 10986 10988 10988 10987 10986 10985 10984 10983 10982 10980 10979 10978 10976 10974 10972 10970 10968 10965 10963 10961 10958 10955 10952 10949 10946 10941 10938 10936 10933 10929 10923 10920 10918 10915 10914 10912 10911
11001 11001 10999 10996 10993 10991 10991 10991 10990 10989 10990 10988 10987 10989 10990 10990 10988 10986 10985 10985 10983 10982 10980 10978 10976 10974 10972 10969 10967 10964 10962 10960 10958 10955 10951 10948 10944 10940 10935 10930 10925 10921 10917 10913 10909 10908 10905 10903 10902
11000 11000 11001 11000 10998 10996 10995 10994 10994 10992 10991 10991 10989 10989 10988 10988 10988 10987 10984 10983 10981 10980 10979 10978 10976 10973 10970 10969 10966 10964 10962 10959 10955 10951 10948 10944 10940 10935 10931 10925 10918 10913 10908 10904 10900 10898 10897 10893 10890
10999 10998 10997 10998 10997 10997 10996 10994 10994 10994 10992 10991 10990 10990 10988 10989 10989 10988 10986 10983 10980 10980 10979 10978 10974 10972 10970 10967 10964 10962 10959 10957 10953 10948 10943 10940 10936 10931 10926 10920 10914 10909 10903 10897 10892 10887 10885 10884 10879
10996 10997 10997 10995 10995 10996 10995 10993 10992 10993 10992 10991 10990 10989 10986 10987 10987 10986 10985 10983 10982 10979 10977 10976 10975 10971 10968 10966 10962 10959 10957 10954 10950 10946 10941 10937 10932 10927 10921 10915 10909 10903 10897 10890 10883 10878 10872 10872 10870
10991 10992 10993 10993 10994 10994 10993 10992 10992 10990 10990 10990 10990 10988 10987 10984 10983 10982 10983 10982 10981 10978 10975 10971 10969 10968 10966 10963 10960 10958 10956 10952 10947 10941 10936 10931 10927 10922 10915 10909 10902 10895 10889 10883 10875 10868 10862 10856 10857
10984 10986 10989 10991 10990 10990 10991 10990 10991 10990 10988 10986 10987 10984 10983 10982 10981 10979 10979 10979 10978 10976 10972 10970 10969 10968 10965 10961 10958 10954 10949 10944 10940 10936 10930 10924 10918 10912 10906 10900 10895 10888 10881 10873 10864 10857 10851 10844 10840
10975 10978 10979 10984 10986 10985 10987 10985 10986 10986 10987 10983 10980 10981 10979 10979 10980 10977 10975 10975 10974 10973 10971 10969 10967 10964 10961 10958 10954 10949 10944 10940 10936 10931 10926 10921 10915 10909 10902 10895 10888 10879 10870 10863 10854 10845 10837 10831 10826
10965 10969 10970 10974 10978 10979 10982 10983 10981 10983 10982 10981 10978 10978 10975 10975 10975 10975 10974 10971 10971 10970 10967 10965 10964 10960 10956 10952 10948 10944 10940 10936 10932 10926 10919 10910 10903 10895 10888 10882 10875 10866 10858 10850 10842 10832 10823 10815 10810
10953 10956 10962 10963 10966 10969 10973 10976 10976 10976 10976 10976 10975 10974 10973 10972 10969 10968 10969 10968 10966 10965 10961 10958 10956 10953 10950 10945 10940 10935 10929 10926 10922 10916 10910 10903 10895 10887 10881 10874 10867 10858 10849 10838 10829 10822 10811 10802 10796
10944 10950 10949 10952 10957 10961 10963 10966 10967 10969 10970 10969 10971 10969 10968 10964 10961 10960 10960 10959 10957 10956 10955 10952 10948 10945 10941 10936 10930 10924 10918 10913 10908 10904 10898 10892 10885 10878 10872 10865 10858 10848 10838 10827 10817 10808 10799 10790 10783
10934 10936 10941 10943 10947 10949 10951 10956 10960 10962 10962 10963 10960 10962 10965 10960 10956 10954 10949 10948 10946 10943 10943 10944 10942 10937 10930 10926 10920 10913 10907 10902 10899 10894 10888 10881 10875 10869 10862 10855 10845 10836 10828 10816 10805 10796 10786 10777 10770
10921 10926 10929 10928 10935 10940 10942 10946 10949 10952 10951 10953 10952 10952 10954 10956 10949 10947 10943 10939 10936 10934 10934 10933 10932 10929 10924 10919 10910 10902 10896 10893 10888 10883 10877 10871 10862 10856 10849 10841 10832 10823 10814 10804 10793 10783 10771 10763 10755
10904 10910 10916 10917 10924 10927 10931 10935 10938 10941 10942 10943 10944 10942 10937 10942 10945 10940 10936 10933 10930 10928 10926 10924 10921 10918 10914 10910 10903 10894 10887 10881 10875 10871 10865 10859 10850 10844 10836 10828 10821 10813 10803 10792 10782 10770 10757 10746 10742